owner,sensor,date,latitude,longitude,vertical_datum,direction_of_sea_water_velocity,sea_water_speed,upward_sea_water_velocity,qcFlag 
TABS,ioos:station:wmo:42047:1,2003-04-01T00:00:00Z,27.8966,-93.5973,2.0,170.4363082,13.96407176,-99999.0,'11111222,11111222,99999999' 
TABS,ioos:station:wmo:42047:1,2003-04-01T00:30:00Z,27.8966,-93.5973,2.0,171.3011903,12.82754848,-99999.0,'11111222,11111222,99999999' 
TABS,ioos:station:wmo:42047:1,2003-04-01T01:00:00Z,27.8966,-93.5973,2.0,172.6876518,11.39265114,-99999.0,'11111222,11111222,99999999' 
TABS,ioos:station:wmo:42047:1,2003-04-01T01:30:00Z,27.8966,-93.5973,2.0,167.8610041,9.083088682,-99999.0,'11133222,11111222,99999999' 
TABS,ioos:station:wmo:42047:1,2003-04-01T02:00:00Z,27.8966,-93.5973,2.0,186.8672824,8.279402152,-99999.0,'11133222,11111222,99999999' 
TABS,ioos:station:wmo:42047:1,2003-04-01T02:30:00Z,27.8966,-93.5973,2.0,162.9975449,7.968268319,-99999.0,'11133222,11111222,99999999' 
TABS,ioos:station:wmo:42047:1,2003-04-01T03:00:00Z,27.8966,-93.5973,2.0,174.0707427,6.002107963,-99999.0,'11133222,11111222,99999999' 
TABS,ioos:station:wmo:42047:1,2003-04-01T03:30:00Z,27.8966,-93.5973,2.0,170.0189041,4.90422267,-99999.0,'11133222,11111222,99999999' 
TABS,ioos:station:wmo:42047:1,2003-04-01T04:00:00Z,27.8966,-93.5973,2.0,165.8063177,2.650924367,-99999.0,'11133222,11111222,99999999' 
TABS,ioos:station:wmo:42047:1,2003-04-01T04:30:00Z,27.8966,-93.5973,2.0,124.2610228,5.84405681,-99999.0,'11133222,11111222,99999999' 
TABS,ioos:station:wmo:42047:1,2003-04-01T05:00:00Z,27.8966,-93.5973,2.0,109.5391984,6.727414065,-99999.0,'11133222,11111222,99999999' 
TABS,ioos:station:wmo:42047:1,2003-04-01T05:30:00Z,27.8966,-93.5973,2.0,105.4221253,5.715811403,-99999.0,'11133222,11111222,99999999' 
TABS,ioos:station:wmo:42047:1,2003-04-01T06:00:00Z,27.8966,-93.5973,2.0,84.25585511,5.095586325,-99999.0,'11133222,11111222,99999999' 
TABS,ioos:station:wmo:42047:1,2003-04-01T06:30:00Z,27.8966,-93.5973,2.0,113.5059794,6.117654779,-99999.0,'11133222,11111222,99999999' 
TABS,ioos:station:wmo:42047:1,2003-04-01T07:00:00Z,27.8966,-93.5973,2.0,77.28311538,7.26829416,-99999.0,'11133222,11111222,99999999' 
TABS,ioos:station:wmo:42047:1,2003-04-01T07:30:00Z,27.8966,-93.5973,2.0,95.03783278,10.93223216,-99999.0,'11111222,11111222,99999999' 
TABS,ioos:station:wmo:42047:1,2003-04-01T08:00:00Z,27.8966,-93.5973,2.0,97.99038073,9.280096982,-99999.0,'11133222,11111222,99999999' 
TABS,ioos:station:wmo:42047:1,2003-04-01T08:30:00Z,27.8966,-93.5973,2.0,97.74671964,11.20223638,-99999.0,'11111222,11111222,99999999' 
TABS,ioos:station:wmo:42047:1,2003-04-01T09:00:00Z,27.8966,-93.5973,2.0,98.4495185,13.95143362,-99999.0,'11111222,11111222,99999999' 
TABS,ioos:station:wmo:42047:1,2003-04-01T09:30:00Z,27.8966,-93.5973,2.0,104.3857259,16.30112266,-99999.0,'11111222,11111222,99999999' 
TABS,ioos:station:wmo:42047:1,2003-04-01T10:00:00Z,27.8966,-93.5973,2.0,99.10479133,17.12577589,-99999.0,'11111222,11111222,99999999' 
TABS,ioos:station:wmo:42047:1,2003-04-01T10:30:00Z,27.8966,-93.5973,2.0,104.6594487,15.60809085,-99999.0,'11111222,11111222,99999999' 
TABS,ioos:station:wmo:42047:1,2003-04-01T11:00:00Z,27.8966,-93.5973,2.0,102.5093825,16.02031523,-99999.0,'11111222,11111222,99999999' 
TABS,ioos:station:wmo:42047:1,2003-04-01T11:30:00Z,27.8966,-93.5973,2.0,105.4488272,14.26543024,-99999.0,'11111222,11111222,99999999' 
TABS,ioos:station:wmo:42047:1,2003-04-01T12:00:00Z,27.8966,-93.5973,2.0,99.19065974,13.52361268,-99999.0,'11111222,11111222,99999999' 
TABS,ioos:station:wmo:42047:1,2003-04-01T12:30:00Z,27.8966,-93.5973,2.0,99.27512804,13.5876488,-99999.0,'11111222,11111222,99999999' 
TABS,ioos:station:wmo:42047:1,2003-04-01T13:00:00Z,27.8966,-93.5973,2.0,99.89035886,12.98295036,-99999.0,'11111222,11111222,99999999' 
TABS,ioos:station:wmo:42047:1,2003-04-01T13:30:00Z,27.8966,-93.5973,2.0,93.40126886,14.49553379,-99999.0,'11111222,11111222,99999999' 
TABS,ioos:station:wmo:42047:1,2003-04-01T14:00:00Z,27.8966,-93.5973,2.0,85.22966271,14.18915079,-99999.0,'11111222,11111222,99999999' 
TABS,ioos:station:wmo:42047:1,2003-04-01T14:30:00Z,27.8966,-93.5973,2.0,86.985189,14.83052595,-99999.0,'11111222,11111222,99999999' 
TABS,ioos:station:wmo:42047:1,2003-04-01T15:30:00Z,27.8966,-93.5973,2.0,75.40676591,15.71705125,-99999.0,'11111222,11111222,99999999' 
TABS,ioos:station:wmo:42047:1,2003-04-01T16:00:00Z,27.8966,-93.5973,2.0,75.73258498,19.23323166,-99999.0,'11111222,11111222,99999999' 
TABS,ioos:station:wmo:42047:1,2003-04-01T16:30:00Z,27.8966,-93.5973,2.0,76.75594888,18.41991585,-99999.0,'11111222,11111222,99999999' 
TABS,ioos:station:wmo:42047:1,2003-04-01T17:00:00Z,27.8966,-93.5973,2.0,74.31070492,18.74853061,-99999.0,'11111222,11111222,99999999' 
TABS,ioos:station:wmo:42047:1,2003-04-01T17:30:00Z,27.8966,-93.5973,2.0,76.69461284,20.7263552,-99999.0,'11111222,11111222,99999999' 
TABS,ioos:station:wmo:42047:1,2003-04-01T18:30:00Z,27.8966,-93.5973,2.0,81.5136407,19.78664449,-99999.0,'11111222,11111222,99999999' 
TABS,ioos:station:wmo:42047:1,2003-04-01T19:00:00Z,27.8966,-93.5973,2.0,79.15853148,20.14964516,-99999.0,'11111222,11111222,99999999' 
TABS,ioos:station:wmo:42047:1,2003-04-01T19:30:00Z,27.8966,-93.5973,2.0,85.47092823,21.90841163,-99999.0,'11111222,11111222,99999999' 
TABS,ioos:station:wmo:42047:1,2003-04-01T20:00:00Z,27.8966,-93.5973,2.0,85.93865431,20.19070331,-99999.0,'11111222,11111222,99999999' 
TABS,ioos:station:wmo:42047:1,2003-04-01T20:30:00Z,27.8966,-93.5973,2.0,80.71326864,20.38721413,-99999.0,'11111222,11111222,99999999' 
TABS,ioos:station:wmo:42047:1,2003-04-01T21:00:00Z,27.8966,-93.5973,2.0,90.41108278,22.30057398,-99999.0,'11111222,11111222,99999999' 
TABS,ioos:station:wmo:42047:1,2003-04-01T21:30:00Z,27.8966,-93.5973,2.0,92.24086026,23.01760196,-99999.0,'11111222,11111222,99999999' 
TABS,ioos:station:wmo:42047:1,2003-04-01T22:00:00Z,27.8966,-93.5973,2.0,94.0330874,23.31774432,-99999.0,'11111222,11111222,99999999' 
TABS,ioos:station:wmo:42047:1,2003-04-01T22:30:00Z,27.8966,-93.5973,2.0,103.3461597,22.35370439,-99999.0,'11111222,11111222,99999999' 
TABS,ioos:station:wmo:42047:1,2003-04-01T23:00:00Z,27.8966,-93.5973,2.0,104.7171471,26.53042028,-99999.0,'11111222,11111222,99999999' 
TABS,ioos:station:wmo:42047:1,2003-04-01T23:30:00Z,27.8966,-93.5973,2.0,111.5240102,25.70239288,-99999.0,'11111222,11111222,99999999' 
TABS,ioos:station:wmo:42047:1,2003-04-02T00:00:00Z,27.8966,-93.5973,2.0,109.5287231,26.50471656,-99999.0,'11111222,11111222,99999999' 
TABS,ioos:station:wmo:42047:1,2003-04-02T00:30:00Z,27.8966,-93.5973,2.0,110.200834,23.60180078,-99999.0,'11111222,11111222,99999999' 
TABS,ioos:station:wmo:42047:1,2003-04-02T01:00:00Z,27.8966,-93.5973,2.0,111.465557,23.44629608,-99999.0,'11111222,11111222,99999999' 
TABS,ioos:station:wmo:42047:1,2003-04-02T01:30:00Z,27.8966,-93.5973,2.0,102.943308,24.28708505,-99999.0,'11111222,11111222,99999999' 
TABS,ioos:station:wmo:42047:1,2003-04-02T02:00:00Z,27.8966,-93.5973,2.0,107.7645102,17.56765494,-99999.0,'11111222,11111222,99999999' 
TABS,ioos:station:wmo:42047:1,2003-04-02T02:30:00Z,27.8966,-93.5973,2.0,108.4717636,19.66304656,-99999.0,'11111222,11111222,99999999' 
TABS,ioos:station:wmo:42047:1,2003-04-02T03:00:00Z,27.8966,-93.5973,2.0,107.9130052,20.48292215,-99999.0,'11111222,11111222,99999999' 
TABS,ioos:station:wmo:42047:1,2003-04-02T03:30:00Z,27.8966,-93.5973,2.0,114.223185,17.40219814,-99999.0,'11111222,11111222,99999999' 
TABS,ioos:station:wmo:42047:1,2003-04-02T04:00:00Z,27.8966,-93.5973,2.0,105.2441633,18.40769404,-99999.0,'11111222,11111222,99999999' 
TABS,ioos:station:wmo:42047:1,2003-04-02T04:30:00Z,27.8966,-93.5973,2.0,99.62194357,17.11071302,-99999.0,'11111222,11111222,99999999' 
TABS,ioos:station:wmo:42047:1,2003-04-02T05:00:00Z,27.8966,-93.5973,2.0,102.3824651,15.71557826,-99999.0,'11111222,11111222,99999999' 
TABS,ioos:station:wmo:42047:1,2003-04-02T05:30:00Z,27.8966,-93.5973,2.0,96.45880128,17.06833325,-99999.0,'11111222,11111222,99999999' 
TABS,ioos:station:wmo:42047:1,2003-04-02T06:00:00Z,27.8966,-93.5973,2.0,91.02443469,14.54232444,-99999.0,'11111222,11111222,99999999' 
TABS,ioos:station:wmo:42047:1,2003-04-02T06:30:00Z,27.8966,-93.5973,2.0,88.78629078,16.52370721,-99999.0,'11111222,11111222,99999999' 
TABS,ioos:station:wmo:42047:1,2003-04-02T07:00:00Z,27.8966,-93.5973,2.0,84.00778001,21.4572412,-99999.0,'11111222,11111222,99999999' 
TABS,ioos:station:wmo:42047:1,2003-04-02T07:30:00Z,27.8966,-93.5973,2.0,86.40887321,19.31793208,-99999.0,'11111222,11111222,99999999' 
TABS,ioos:station:wmo:42047:1,2003-04-02T08:00:00Z,27.8966,-93.5973,2.0,85.63796241,20.37903089,-99999.0,'11111222,11111222,99999999' 
TABS,ioos:station:wmo:42047:1,2003-04-02T08:30:00Z,27.8966,-93.5973,2.0,92.30817195,20.85692211,-99999.0,'11111222,11111222,99999999' 
TABS,ioos:station:wmo:42047:1,2003-04-02T09:00:00Z,27.8966,-93.5973,2.0,91.63588624,23.81970823,-99999.0,'11111222,11111222,99999999' 
TABS,ioos:station:wmo:42047:1,2003-04-02T09:30:00Z,27.8966,-93.5973,2.0,93.72505487,23.54975371,-99999.0,'11111222,11111222,99999999' 
TABS,ioos:station:wmo:42047:1,2003-04-02T10:00:00Z,27.8966,-93.5973,2.0,94.64351407,22.97541295,-99999.0,'11111222,11111222,99999999' 
TABS,ioos:station:wmo:42047:1,2003-04-02T10:30:00Z,27.8966,-93.5973,2.0,95.8894619,23.58448643,-99999.0,'11111222,11111222,99999999' 
TABS,ioos:station:wmo:42047:1,2003-04-02T11:00:00Z,27.8966,-93.5973,2.0,105.1509858,22.68865135,-99999.0,'11111222,11111222,99999999' 
TABS,ioos:station:wmo:42047:1,2003-04-02T11:30:00Z,27.8966,-93.5973,2.0,103.6022108,21.13273527,-99999.0,'11111222,11111222,99999999' 
TABS,ioos:station:wmo:42047:1,2003-04-02T12:00:00Z,27.8966,-93.5973,2.0,97.18500689,18.9487968,-99999.0,'11111222,11111222,99999999' 
TABS,ioos:station:wmo:42047:1,2003-04-02T12:30:00Z,27.8966,-93.5973,2.0,100.7049807,20.61883847,-99999.0,'11111222,11111222,99999999' 
TABS,ioos:station:wmo:42047:1,2003-04-02T13:00:00Z,27.8966,-93.5973,2.0,93.07939221,18.98741689,-99999.0,'11111222,11111222,99999999' 
TABS,ioos:station:wmo:42047:1,2003-04-02T13:30:00Z,27.8966,-93.5973,2.0,90.0,20.09,-99999.0,'11111222,11111222,99999999' 
TABS,ioos:station:wmo:42047:1,2003-04-02T14:00:00Z,27.8966,-93.5973,2.0,85.69881274,22.533464,-99999.0,'11111222,11111222,99999999' 
TABS,ioos:station:wmo:42047:1,2003-04-02T14:30:00Z,27.8966,-93.5973,2.0,87.2301999,22.55635166,-99999.0,'11111222,11111222,99999999' 
TABS,ioos:station:wmo:42047:1,2003-04-02T15:00:00Z,27.8966,-93.5973,2.0,81.00287762,24.29897117,-99999.0,'11111222,11111222,99999999' 
TABS,ioos:station:wmo:42047:1,2003-04-02T15:30:00Z,27.8966,-93.5973,2.0,78.88037402,21.25910628,-99999.0,'11111222,11111222,99999999' 
TABS,ioos:station:wmo:42047:1,2003-04-02T16:00:00Z,27.8966,-93.5973,2.0,88.0466083,22.00278619,-99999.0,'11111222,11111222,99999999' 
TABS,ioos:station:wmo:42047:1,2003-04-02T16:30:00Z,27.8966,-93.5973,2.0,80.39396266,20.31484679,-99999.0,'11111222,11111222,99999999' 
TABS,ioos:station:wmo:42047:1,2003-04-02T17:00:00Z,27.8966,-93.5973,2.0,73.90606559,20.12888472,-99999.0,'11111222,11111222,99999999' 
TABS,ioos:station:wmo:42047:1,2003-04-02T17:30:00Z,27.8966,-93.5973,2.0,79.67573973,21.0914888,-99999.0,'11111222,11111222,99999999' 
TABS,ioos:station:wmo:42047:1,2003-04-02T18:30:00Z,27.8966,-93.5973,2.0,79.20457166,24.02519511,-99999.0,'11111222,11111222,99999999' 
TABS,ioos:station:wmo:42047:1,2003-04-02T19:00:00Z,27.8966,-93.5973,2.0,74.24829282,24.79097618,-99999.0,'11111222,11111222,99999999' 
TABS,ioos:station:wmo:42047:1,2003-04-02T19:30:00Z,27.8966,-93.5973,2.0,84.6954119,24.01284032,-99999.0,'11111222,11111222,99999999' 
TABS,ioos:station:wmo:42047:1,2003-04-02T20:00:00Z,27.8966,-93.5973,2.0,82.91603673,24.24507579,-99999.0,'11111222,11111222,99999999' 
TABS,ioos:station:wmo:42047:1,2003-04-02T20:30:00Z,27.8966,-93.5973,2.0,81.25909817,24.93965918,-99999.0,'11111222,11111222,99999999' 
TABS,ioos:station:wmo:42047:1,2003-04-02T21:00:00Z,27.8966,-93.5973,2.0,75.89543005,26.42670051,-99999.0,'11111222,11111222,99999999' 
TABS,ioos:station:wmo:42047:1,2003-04-02T21:30:00Z,27.8966,-93.5973,2.0,84.79960643,26.03717535,-99999.0,'11111222,11111222,99999999' 
TABS,ioos:station:wmo:42047:1,2003-04-02T22:00:00Z,27.8966,-93.5973,2.0,85.28311454,27.48308025,-99999.0,'11111222,11111222,99999999' 
TABS,ioos:station:wmo:42047:1,2003-04-02T22:30:00Z,27.8966,-93.5973,2.0,86.7028443,25.73259606,-99999.0,'11111222,11111222,99999999' 
TABS,ioos:station:wmo:42047:1,2003-04-02T23:00:00Z,27.8966,-93.5973,2.0,91.95351275,25.81500339,-99999.0,'11111222,11111222,99999999' 
TABS,ioos:station:wmo:42047:1,2003-04-02T23:30:00Z,27.8966,-93.5973,2.0,95.04868116,24.20390464,-99999.0,'11111222,11111222,99999999' 
TABS,ioos:station:wmo:42047:1,2003-04-03T00:00:00Z,27.8966,-93.5973,2.0,104.7369047,22.01417952,-99999.0,'11111222,11111222,99999999' 
TABS,ioos:station:wmo:42047:1,2003-04-03T00:30:00Z,27.8966,-93.5973,2.0,103.4848186,16.38161469,-99999.0,'11111222,11111222,99999999' 
TABS,ioos:station:wmo:42047:1,2003-04-03T01:00:00Z,27.8966,-93.5973,2.0,106.9374453,19.11933576,-99999.0,'11111222,11111222,99999999' 
TABS,ioos:station:wmo:42047:1,2003-04-03T01:30:00Z,27.8966,-93.5973,2.0,111.6280313,19.64294275,-99999.0,'11111222,11111222,99999999' 
TABS,ioos:station:wmo:42047:1,2003-04-03T02:00:00Z,27.8966,-93.5973,2.0,121.3263755,18.96469351,-99999.0,'11111222,11111222,99999999' 
TABS,ioos:station:wmo:42047:1,2003-04-03T02:30:00Z,27.8966,-93.5973,2.0,102.9328613,14.61062969,-99999.0,'11111222,11111222,99999999' 
TABS,ioos:station:wmo:42047:1,2003-04-03T03:00:00Z,27.8966,-93.5973,2.0,103.5943507,16.03935784,-99999.0,'11111222,11111222,99999999' 
TABS,ioos:station:wmo:42047:1,2003-04-03T03:30:00Z,27.8966,-93.5973,2.0,107.7186053,15.93596247,-99999.0,'11111222,11111222,99999999' 
TABS,ioos:station:wmo:42047:1,2003-04-03T04:00:00Z,27.8966,-93.5973,2.0,104.1784588,13.67662605,-99999.0,'11111222,11111222,99999999' 
TABS,ioos:station:wmo:42047:1,2003-04-03T04:30:00Z,27.8966,-93.5973,2.0,93.70769875,14.69074879,-99999.0,'11111222,11111222,99999999' 
TABS,ioos:station:wmo:42047:1,2003-04-03T05:00:00Z,27.8966,-93.5973,2.0,61.43508552,13.07107111,-99999.0,'11111222,11111222,99999999' 
TABS,ioos:station:wmo:42047:1,2003-04-03T05:30:00Z,27.8966,-93.5973,2.0,53.68579736,17.32481457,-99999.0,'11111222,11111222,99999999' 
TABS,ioos:station:wmo:42047:1,2003-04-03T06:00:00Z,27.8966,-93.5973,2.0,60.00799749,20.12482298,-99999.0,'11111222,11111222,99999999' 
TABS,ioos:station:wmo:42047:1,2003-04-03T06:30:00Z,27.8966,-93.5973,2.0,64.35132216,24.04975052,-99999.0,'11111222,11111222,99999999' 
TABS,ioos:station:wmo:42047:1,2003-04-03T07:00:00Z,27.8966,-93.5973,2.0,73.46131173,24.27428681,-99999.0,'11111222,11111222,99999999' 
TABS,ioos:station:wmo:42047:1,2003-04-03T07:30:00Z,27.8966,-93.5973,2.0,70.04285724,28.33135719,-99999.0,'11111222,11111222,99999999' 
TABS,ioos:station:wmo:42047:1,2003-04-03T08:00:00Z,27.8966,-93.5973,2.0,74.03692082,31.08881793,-99999.0,'11111222,11111222,99999999' 
TABS,ioos:station:wmo:42047:1,2003-04-03T08:30:00Z,27.8966,-93.5973,2.0,67.81422689,31.27551279,-99999.0,'11111222,11111222,99999999' 
TABS,ioos:station:wmo:42047:1,2003-04-03T09:00:00Z,27.8966,-93.5973,2.0,70.2590476,33.15877109,-99999.0,'11111222,11111222,99999999' 
TABS,ioos:station:wmo:42047:1,2003-04-03T09:30:00Z,27.8966,-93.5973,2.0,76.58868838,33.8017751,-99999.0,'11111222,11111222,99999999' 
TABS,ioos:station:wmo:42047:1,2003-04-03T10:00:00Z,27.8966,-93.5973,2.0,79.83680947,32.92664878,-99999.0,'11111222,11111222,99999999' 
TABS,ioos:station:wmo:42047:1,2003-04-03T10:30:00Z,27.8966,-93.5973,2.0,80.44205724,33.48483239,-99999.0,'11111222,11111222,99999999' 
TABS,ioos:station:wmo:42047:1,2003-04-03T11:00:00Z,27.8966,-93.5973,2.0,79.1138801,34.99984286,-99999.0,'11111222,11111222,99999999' 
TABS,ioos:station:wmo:42047:1,2003-04-03T11:30:00Z,27.8966,-93.5973,2.0,82.33042444,31.32018518,-99999.0,'11111222,11111222,99999999' 
TABS,ioos:station:wmo:42047:1,2003-04-03T12:00:00Z,27.8966,-93.5973,2.0,81.76810071,30.24159057,-99999.0,'11111222,11111222,99999999' 
TABS,ioos:station:wmo:42047:1,2003-04-03T12:30:00Z,27.8966,-93.5973,2.0,82.76340971,28.65827978,-99999.0,'11111222,11111222,99999999' 
TABS,ioos:station:wmo:42047:1,2003-04-03T13:00:00Z,27.8966,-93.5973,2.0,78.76812808,30.23917492,-99999.0,'11111222,11111222,99999999' 
TABS,ioos:station:wmo:42047:1,2003-04-03T13:30:00Z,27.8966,-93.5973,2.0,77.63528758,27.27260897,-99999.0,'11111222,11111222,99999999' 
TABS,ioos:station:wmo:42047:1,2003-04-03T14:00:00Z,27.8966,-93.5973,2.0,76.41692314,25.76051436,-99999.0,'11111222,11111222,99999999' 
TABS,ioos:station:wmo:42047:1,2003-04-03T14:30:00Z,27.8966,-93.5973,2.0,71.55112655,25.94332669,-99999.0,'11111222,11111222,99999999' 
TABS,ioos:station:wmo:42047:1,2003-04-03T15:30:00Z,27.8966,-93.5973,2.0,68.88654929,22.73631896,-99999.0,'11111222,11111222,99999999' 
TABS,ioos:station:wmo:42047:1,2003-04-03T16:00:00Z,27.8966,-93.5973,2.0,63.57205819,26.17548662,-99999.0,'11111222,11111222,99999999' 
TABS,ioos:station:wmo:42047:1,2003-04-03T16:30:00Z,27.8966,-93.5973,2.0,71.45067478,25.33621913,-99999.0,'11111222,11111222,99999999' 
TABS,ioos:station:wmo:42047:1,2003-04-03T17:00:00Z,27.8966,-93.5973,2.0,67.72487133,26.72432974,-99999.0,'11111222,11111222,99999999' 
TABS,ioos:station:wmo:42047:1,2003-04-03T17:30:00Z,27.8966,-93.5973,2.0,64.78473075,27.90939985,-99999.0,'11111222,11111222,99999999' 
TABS,ioos:station:wmo:42047:1,2003-04-03T18:30:00Z,27.8966,-93.5973,2.0,63.4944668,25.85790401,-99999.0,'11111222,11111222,99999999' 
TABS,ioos:station:wmo:42047:1,2003-04-03T19:00:00Z,27.8966,-93.5973,2.0,54.49975275,28.53415147,-99999.0,'11111222,11111222,99999999' 
TABS,ioos:station:wmo:42047:1,2003-04-03T19:30:00Z,27.8966,-93.5973,2.0,61.2502922,30.85333207,-99999.0,'11111222,11111222,99999999' 
TABS,ioos:station:wmo:42047:1,2003-04-03T20:00:00Z,27.8966,-93.5973,2.0,61.5216543,28.39600676,-99999.0,'11111222,11111222,99999999' 
TABS,ioos:station:wmo:42047:1,2003-04-03T20:30:00Z,27.8966,-93.5973,2.0,63.40562354,26.15752664,-99999.0,'11111222,11111222,99999999' 
TABS,ioos:station:wmo:42047:1,2003-04-03T21:00:00Z,27.8966,-93.5973,2.0,64.48310238,26.64944465,-99999.0,'11111222,11111222,99999999' 
TABS,ioos:station:wmo:42047:1,2003-04-03T21:30:00Z,27.8966,-93.5973,2.0,66.4732852,24.29996708,-99999.0,'11111222,11111222,99999999' 
TABS,ioos:station:wmo:42047:1,2003-04-03T22:00:00Z,27.8966,-93.5973,2.0,74.6381934,26.83889901,-99999.0,'11111222,11111222,99999999' 
TABS,ioos:station:wmo:42047:1,2003-04-03T22:30:00Z,27.8966,-93.5973,2.0,72.22968895,28.89883735,-99999.0,'11111222,11111222,99999999' 
TABS,ioos:station:wmo:42047:1,2003-04-03T23:00:00Z,27.8966,-93.5973,2.0,76.37185726,28.60537712,-99999.0,'11111222,11111222,99999999' 
TABS,ioos:station:wmo:42047:1,2003-04-03T23:30:00Z,27.8966,-93.5973,2.0,78.54127445,27.18178802,-99999.0,'11111222,11111222,99999999' 
TABS,ioos:station:wmo:42047:1,2003-04-04T00:00:00Z,27.8966,-93.5973,2.0,90.08767498,26.1400306,-99999.0,'11111222,11111222,99999999' 
TABS,ioos:station:wmo:42047:1,2003-04-04T00:30:00Z,27.8966,-93.5973,2.0,87.20561703,24.81951249,-99999.0,'11111222,11111222,99999999' 
TABS,ioos:station:wmo:42047:1,2003-04-04T01:00:00Z,27.8966,-93.5973,2.0,84.14155466,23.90485306,-99999.0,'11111222,11111222,99999999' 
TABS,ioos:station:wmo:42047:1,2003-04-04T01:30:00Z,27.8966,-93.5973,2.0,85.37983884,23.21543667,-99999.0,'11111222,11111222,99999999' 
TABS,ioos:station:wmo:42047:1,2003-04-04T02:00:00Z,27.8966,-93.5973,2.0,91.23289914,19.98462659,-99999.0,'11111222,11111222,99999999' 
TABS,ioos:station:wmo:42047:1,2003-04-04T02:30:00Z,27.8966,-93.5973,2.0,87.61130005,17.27501085,-99999.0,'11111222,11111222,99999999' 
TABS,ioos:station:wmo:42047:1,2003-04-04T03:00:00Z,27.8966,-93.5973,2.0,86.07961884,18.28278152,-99999.0,'11111222,11111222,99999999' 
TABS,ioos:station:wmo:42047:1,2003-04-04T03:30:00Z,27.8966,-93.5973,2.0,75.71223684,16.57261898,-99999.0,'11111222,11111222,99999999' 
TABS,ioos:station:wmo:42047:1,2003-04-04T04:00:00Z,27.8966,-93.5973,2.0,72.38654942,18.96929097,-99999.0,'11111222,11111222,99999999' 
TABS,ioos:station:wmo:42047:1,2003-04-04T04:30:00Z,27.8966,-93.5973,2.0,67.39195393,18.72923116,-99999.0,'11111222,11111222,99999999' 
TABS,ioos:station:wmo:42047:1,2003-04-04T05:00:00Z,27.8966,-93.5973,2.0,59.56722558,17.76801621,-99999.0,'11111222,11111222,99999999' 
TABS,ioos:station:wmo:42047:1,2003-04-04T05:30:00Z,27.8966,-93.5973,2.0,58.30017885,18.68802825,-99999.0,'11111222,11111222,99999999' 
TABS,ioos:station:wmo:42047:1,2003-04-04T06:00:00Z,27.8966,-93.5973,2.0,55.08680256,20.26781685,-99999.0,'11111222,11111222,99999999' 
TABS,ioos:station:wmo:42047:1,2003-04-04T06:30:00Z,27.8966,-93.5973,2.0,58.72120551,19.64546004,-99999.0,'11111222,11111222,99999999' 
TABS,ioos:station:wmo:42047:1,2003-04-04T07:00:00Z,27.8966,-93.5973,2.0,54.06937732,18.30245885,-99999.0,'11111222,11111222,99999999' 
TABS,ioos:station:wmo:42047:1,2003-04-04T07:30:00Z,27.8966,-93.5973,2.0,52.37877424,19.21565247,-99999.0,'11111222,11111222,99999999' 
TABS,ioos:station:wmo:42047:1,2003-04-04T08:00:00Z,27.8966,-93.5973,2.0,54.97315852,21.51713038,-99999.0,'11111222,11111222,99999999' 
TABS,ioos:station:wmo:42047:1,2003-04-04T08:30:00Z,27.8966,-93.5973,2.0,53.08510545,22.87600708,-99999.0,'11111222,11111222,99999999' 
TABS,ioos:station:wmo:42047:1,2003-04-04T09:00:00Z,27.8966,-93.5973,2.0,56.73487251,23.18987926,-99999.0,'11111222,11111222,99999999' 
TABS,ioos:station:wmo:42047:1,2003-04-04T09:30:00Z,27.8966,-93.5973,2.0,51.58270016,23.25448129,-99999.0,'11111222,11111222,99999999' 
TABS,ioos:station:wmo:42047:1,2003-04-04T10:00:00Z,27.8966,-93.5973,2.0,60.95334893,21.17306071,-99999.0,'11111222,11111222,99999999' 
TABS,ioos:station:wmo:42047:1,2003-04-04T10:30:00Z,27.8966,-93.5973,2.0,59.61709994,22.16390083,-99999.0,'11111222,11111222,99999999' 
TABS,ioos:station:wmo:42047:1,2003-04-04T11:00:00Z,27.8966,-93.5973,2.0,65.51054184,21.85625082,-99999.0,'11111222,11111222,99999999' 
TABS,ioos:station:wmo:42047:1,2003-04-04T11:30:00Z,27.8966,-93.5973,2.0,60.42930082,22.85722643,-99999.0,'11111222,11111222,99999999' 
TABS,ioos:station:wmo:42047:1,2003-04-04T12:00:00Z,27.8966,-93.5973,2.0,73.30558662,22.90545786,-99999.0,'11111222,11111222,99999999' 
TABS,ioos:station:wmo:42047:1,2003-04-04T12:30:00Z,27.8966,-93.5973,2.0,73.38601883,21.89401745,-99999.0,'11111222,11111222,99999999' 
TABS,ioos:station:wmo:42047:1,2003-04-04T13:00:00Z,27.8966,-93.5973,2.0,78.76716636,21.86893001,-99999.0,'11111222,11111222,99999999' 
TABS,ioos:station:wmo:42047:1,2003-04-04T13:30:00Z,27.8966,-93.5973,2.0,77.47938685,22.83301557,-99999.0,'11111222,11111222,99999999' 
TABS,ioos:station:wmo:42047:1,2003-04-04T14:00:00Z,27.8966,-93.5973,2.0,86.60550958,22.80000219,-99999.0,'11111222,11111222,99999999' 
TABS,ioos:station:wmo:42047:1,2003-04-04T14:30:00Z,27.8966,-93.5973,2.0,82.49104418,21.65571056,-99999.0,'11111222,11111222,99999999' 
TABS,ioos:station:wmo:42047:1,2003-04-04T15:30:00Z,27.8966,-93.5973,2.0,81.56985612,19.71299318,-99999.0,'11111222,11111222,99999999' 
TABS,ioos:station:wmo:42047:1,2003-04-04T16:00:00Z,27.8966,-93.5973,2.0,84.19600058,21.35949672,-99999.0,'11111222,11111222,99999999' 
TABS,ioos:station:wmo:42047:1,2003-04-04T16:30:00Z,27.8966,-93.5973,2.0,79.08492755,20.49070033,-99999.0,'11111222,11111222,99999999' 
TABS,ioos:station:wmo:42047:1,2003-04-04T17:00:00Z,27.8966,-93.5973,2.0,77.06863984,20.3767809,-99999.0,'11111222,11111222,99999999' 
TABS,ioos:station:wmo:42047:1,2003-04-04T17:30:00Z,27.8966,-93.5973,2.0,77.52417504,19.95110273,-99999.0,'11111222,11111222,99999999' 
TABS,ioos:station:wmo:42047:1,2003-04-04T18:30:00Z,27.8966,-93.5973,2.0,75.95717781,21.01813741,-99999.0,'11111222,11111222,99999999' 
TABS,ioos:station:wmo:42047:1,2003-04-04T19:00:00Z,27.8966,-93.5973,2.0,76.58250878,19.09109216,-99999.0,'11111222,11111222,99999999' 
TABS,ioos:station:wmo:42047:1,2003-04-04T19:30:00Z,27.8966,-93.5973,2.0,66.94256529,18.12822109,-99999.0,'11111222,11111222,99999999' 